EW6254 Weather Reports


time (UTC)temp
F
wind
direction
speed
knots
gust
knots
rain 1hr
in
rain 24hr
in
rain mn
in
humidity
%
barometer
mb
20171123111927 35 309 0.0 0.0 0.00 0.00 0.00 66 1016.8
20171123110943 35 304 0.0 0.0 0.00 0.00 0.00 66 1016.8
20171123105916 35 304 0.0 0.0 0.00 0.00 0.00 65 1016.8
20171123104934 34 304 0.0 0.0 0.00 0.00 0.00 65 1016.8
20171123103930 34 306 0.0 0.0 0.00 0.00 0.00 64 1016.9
20171123102942 34 306 0.0 0.0 0.00 0.00 0.00 64 1016.7
20171123102004 34 306 0.0 0.0 0.00 0.00 0.00 64 1016.7
20171123100941 34 305 0.0 0.0 0.00 0.00 0.00 64 1016.7
20171123095949 34 284 0.0 0.0 0.00 0.00 0.00 64 1016.6
20171123094942 34 244 0.0 0.0 0.00 0.00 0.00 63 1016.5
20171123093956 34 226 0.0 0.0 0.00 0.00 0.00 63 1016.6
20171123092928 34 226 0.0 0.0 0.00 0.00 0.00 63 1016.5
20171123090921 34 226 0.0 0.0 0.00 0.00 0.00 63 1016.9
20171123085902 34 227 0.0 0.0 0.00 0.00 0.00 63 1016.9
20171123084847 34 226 0.0 0.0 0.00 0.00 0.00 63 1016.7
20171123083844 34 226 0.0 0.0 0.00 0.00 0.00 63 1016.7
20171123082821 34 227 0.0 0.0 0.00 0.00 0.00 63 1016.8
20171123075440 33 205 0.0 0.0 0.00 0.00 0.00 62 1016.5
20171123074434 33 204 0.0 0.0 0.00 0.00 0.00 62 1016.6
20171123073414 33 202 0.0 0.0 0.00 0.00 0.00 61 1016.6
20171123072338 33 202 0.0 0.0 0.00 0.00 0.00 61 1016.7
20171123071349 34 200 0.0 0.0 0.00 0.00 0.00 60 1016.7
20171123070319 34 197 0.0 0.0 0.00 0.00 0.00 60 1016.9
20171123065307 34 204 0.0 0.0 0.00 0.00 0.00 59 1017.0
20171123064317 34 194 0.0 0.0 0.00 0.00 0.00 59 1017.1
20171123063338 34 205 0.0 0.0 0.00 0.00 0.00 59 1017.2
20171123062328 34 201 0.0 3.5 0.00 0.00 0.00 58 1017.2
20171123061335 34 199 0.0 0.0 0.00 0.00 0.00 58 1017.4
20171123060301 34 192 0.0 2.6 0.00 0.00 0.00 58 1017.5
20171123055244 35 173 0.0 0.0 0.00 0.00 0.00 57 1017.8
20171123054235 35 198 0.0 0.0 0.00 0.00 0.00 57 1017.7
20171123053253 35 211 0.0 4.3 0.00 0.00 0.00 56 1017.8
20171123052248 35 225 0.9 0.0 0.00 0.00 0.00 56 1017.8
20171123051300 35 204 0.0 5.2 0.00 0.00 0.00 56 1017.8
20171123050312 35 204 0.0 0.0 0.00 0.00 0.00 56 1017.9
20171123045236 35 187 0.0 5.2 0.00 0.00 0.00 56 1018.0
20171123044205 35 197 0.0 4.3 0.00 0.00 0.00 56 1018.2
20171123043227 35 204 0.0 4.3 0.00 0.00 0.00 56 1018.3
20171123042247 35 185 0.0 0.0 0.00 0.00 0.00 55 1018.3
20171123041251 36 178 0.0 0.0 0.00 0.00 0.00 55 1018.6
20171123040255 36 173 0.0 0.0 0.00 0.00 0.00 54 1018.7
20171123035305 36 182 0.0 0.9 0.00 0.00 0.00 54 1018.8
20171123034301 36 182 0.0 0.0 0.00 0.00 0.00 54 1018.9
20171123033304 36 168 0.0 5.2 0.00 0.00 0.00 53 1018.8
20171123032311 36 207 0.9 0.0 0.00 0.00 0.00 53 1018.9
20171123031315 36 178 0.9 1.7 0.00 0.00 0.00 53 1018.8
20171123030326 36 196 0.9 5.2 0.00 0.00 0.00 53 1019.0
20171123025252 36 209 0.9 0.0 0.00 0.00 0.00 52 1019.2
20171123024237 37 219 0.0 0.0 0.00 0.00 0.00 52 1019.4
20171123023234 37 172 0.0 4.3 0.00 0.00 0.00 52 1019.6
20171123022234 37 134 0.0 4.3 0.00 0.00 0.00 51 1019.3
20171123021201 37 219 0.9 7.0 0.00 0.00 0.00 51 1019.5
20171123020144 37 189 0.9 5.2 0.00 0.00 0.00 51 1019.9
20171123015150 37 178 0.0 0.0 0.00 0.00 0.00 50 1020.1
20171123014210 37 192 0.9 7.0 0.00 0.00 0.00 50 1020.4
20171123013207 37 193 2.6 7.0 0.00 0.00 0.00 50 1020.5
20171123012220 38 205 0.0 7.0 0.00 0.00 0.00 49 1020.7
20171123011209 38 153 0.9 7.8 0.00 0.00 0.00 49 1020.8
20171123010131 38 167 0.0 0.0 0.00 0.00 0.00 49 1021.0
20171123005109 38 198 0.0 4.3 0.00 0.00 0.00 49 1021.0
20171123004050 38 193 0.0 1.7 0.00 0.00 0.00 48 1021.2
20171123003056 38 200 0.0 0.0 0.00 0.00 0.00 48 1021.3
20171123002111 38 201 1.7 6.1 0.00 0.00 0.00 47 1021.4
20171123001038 38 193 0.0 6.1 0.00 0.00 0.00 47 1021.5
20171123000011 38 213 0.0 0.0 0.00 0.00 0.00 47 1021.4
20171122235022 38 210 0.0 0.0 0.00 0.00 0.00 46 1021.6
20171122234017 38 223 0.9 5.2 0.00 0.00 0.00 46 1021.7
20171122233026 39 112 0.0 5.2 0.00 0.00 0.00 46 1021.6
20171122232047 39 173 0.0 4.3 0.00 0.00 0.00 45 1021.5
20171122231031 39 178 0.0 3.5 0.00 0.00 0.00 45 1021.6
20171122230035 39 0 2.6 9.6 0.00 0.00 0.00 44 1021.7
20171122223944 40 0 1.7 7.0 0.00 0.00 0.00 43 1022.0
20171122223001 40 213 2.6 12.2 0.00 0.00 0.00 42 1022.2
20171122221926 40 218 4.3 12.2 0.00 0.00 0.00 42 1022.4
20171122220852 40 195 3.5 11.3 0.00 0.00 0.00 42 1022.5
20171122215911 40 217 3.5 11.3 0.00 0.00 0.00 42 1022.6
20171122214853 40 177 4.3 13.0 0.00 0.00 0.00 42 1022.3
20171122213830 40 206 3.5 13.0 0.00 0.00 0.00 41 1022.2
20171122212759 40 238 1.7 9.6 0.00 0.00 0.00 41 1022.6
20171122211819 40 155 5.2 0.0 0.00 0.00 0.00 42 1022.5
20171122210803 39 194 3.5 11.3 0.00 0.00 0.00 41 1022.6
20171122205754 39 163 5.2 12.2 0.00 0.00 0.00 42 1022.6
20171122204802 39 180 4.3 12.2 0.00 0.00 0.00 42 1022.8
20171122203747 38 160 3.5 11.3 0.00 0.00 0.00 44 1022.8
20171122202748 37 203 2.6 11.3 0.00 0.00 0.00 44 1023.0
20171122201806 37 252 4.3 12.2 0.00 0.00 0.00 44 1023.5
20171122195726 36 192 3.5 12.2 0.00 0.00 0.00 45 1024.1
20171122194739 36 204 2.6 8.7 0.00 0.00 0.00 47 1024.2
20171122193755 35 188 2.6 9.6 0.00 0.00 0.00 48 1024.6
20171122192722 34 200 1.7 13.0 0.00 0.00 0.00 48 1024.5
20171122191726 34 227 4.3 13.0 0.00 0.00 0.00 48 1024.7
20171122190733 34 182 3.5 11.3 0.00 0.00 0.00 48 1025.3
20171122184614 34 227 2.6 8.7 0.00 0.00 0.00 49 1026.5
20171122183551 33 212 2.6 8.7 0.00 0.00 0.00 49 1026.8
20171122182536 33 212 2.6 10.4 0.00 0.00 0.00 49 1027.2
20171122180340 33 202 5.2 8.7 0.00 0.00 0.00 48 1027.5
20171122175350 32 216 3.5 12.2 0.00 0.00 0.00 50 1027.7
20171122174348 32 159 2.6 12.2 0.00 0.00 0.00 50 1028.1
20171122173410 31 156 3.5 8.7 0.00 0.00 0.00 51 1027.9
20171122172345 30 250 4.3 13.9 0.00 0.00 0.00 52 1028.0
20171122171317 30 190 5.2 13.9 0.00 0.00 0.00 53 1028.3
20171122170240 29 174 5.2 13.0 0.00 0.00 0.00 53 1028.5
20171122165230 29 219 2.6 11.3 0.00 0.00 0.00 54 1029.0
20171122164244 29 165 2.6 11.3 0.00 0.00 0.00 56 1029.5
20171122163305 28 205 1.7 10.4 0.00 0.00 0.00 57 1029.9
20171122162253 27 198 0.9 3.5 0.00 0.00 0.00 58 1030.1
20171122161225 27 209 1.7 9.6 0.00 0.00 0.00 60 1029.9
20171122160154 26 223 0.9 9.6 0.00 0.00 0.00 63 1030.4
20171122155119 25 224 0.9 7.0 0.00 0.00 0.00 64 1030.4
20171122154057 24 223 0.0 4.3 0.00 0.00 0.00 65 1030.6
20171122153032 23 207 0.0 6.1 0.00 0.00 0.00 67 1030.5
20171122152003 23 165 0.0 5.2 0.00 0.00 0.00 68 1030.5
20171122151024 22 155 0.0 0.0 0.00 0.00 0.00 70 1030.4
20171122144845 21 217 0.0 0.0 0.00 0.00 0.00 75 1030.5
20171122142717 19 158 0.0 0.0 0.00 0.00 0.00 78 1030.6
20171122141731 19 178 0.0 0.0 0.00 0.00 0.00 78 1030.5
20171122140750 18 197 0.0 0.0 0.00 0.00 0.00 79 1030.7
20171122135727 18 261 0.0 0.0 0.00 0.00 0.00 79 1030.8
20171122134704 17 264 0.0 0.0 0.00 0.00 0.00 79 1030.9
20171122133705 17 299 0.0 0.0 0.00 0.00 0.00 79 1030.7
20171122132721 17 317 0.0 0.0 0.00 0.00 0.00 78 1030.6
20171122131735 17 318 0.0 0.0 0.00 0.00 0.00 78 1030.7
20171122130721 17 318 0.0 0.0 0.00 0.00 0.00 78 1030.6
20171122124642 17 318 0.0 0.0 0.00 0.00 0.00 78 1030.5
20171122123622 17 319 0.0 0.0 0.00 0.00 0.00 78 1030.5
20171122122557 17 320 0.0 0.0 0.00 0.00 0.00 78 1030.5
20171122121615 17 320 0.0 0.0 0.00 0.00 0.00 77 1030.5
20171122120540 17 320 0.0 0.0 0.00 0.00 0.00 78 1030.5
20171122115532 17 320 0.0 0.0 0.00 0.00 0.00 78 1030.4
20171122114504 17 320 0.0 0.0 0.00 0.00 0.00 77 1030.4
20171122113517 16 321 0.0 0.0 0.00 0.00 0.00 77 1030.3